Location: Champseau
(45.8333°N, 1.7667°E)
Time: 09:07:43
(UTC+00:00)

ITUPSAT 1 - Pass Details

Date: 30 November 2021
Orbit: 700 x 713 km, 98.6° (Epoch: 27 January)

Event Time Altitude Azimuth Distance (km) Brightness Sun altitude
Rises 06:00:41 0° 144° (SE) 3,085 ? -12.2°
Reaches altitude 10° 06:03:01 10° 137° (SE) 2,173 ? -11.8°
Maximum altitude 06:07:28 41° 68° (ENE) 1,030 ? -11.1°
Drops below altitude 10° 06:11:57 10° 359° (N) 2,195 ? -10.3°
Sets 06:14:20 0° 353° (N) 3,121 ? -10.0°
